Погода в Хелене

США     46°35′23″N   112°01′13″W
темп.,
°C
ветер,
м/с
пор.,
м/с
влажн.,
%
обл.,
%
осадки,
мм/ч
давл.,
гПа
погр.,
м
21 октября, чт
чт2100:00+5ююз336696 0.0 101837
03:00+4ююз2367100 0.0 101949
06:00+5ю226334 0.0 101833
09:00+6ююз245999 0.0 1019108
12:00+13зюз4834100 0.0 10161603
15:00+16з4728100 0.0 10141693
18:00+12з123826 0.0 101434
21:00+8ююз224843 0.0 101621
22 октября, пт
пт2200:00+7ююз235138 0.0 101536
03:00+6ююз22591 0.0 101436
06:00+5ю23685 0.0 101338
09:00+6ю226289 0.0 101256
12:00+14в1336100 0.0 1007677
15:00+17ююв1429100 0.0 10021115
18:00+13ююв2238100 0.0 100031
21:00+11ю3639100 0.0 999155
23 октября, сб
сб2300:00+10ю483998 0.0 998240
03:00+6зюз7126420 0.0 10021082
06:00+3ююз35675 0.0 1006135
09:00+3ююз35684 0.0 1006142
12:00+9зюз583584 0.0 10032115
15:00+10з5727100 0.0 10022487
18:00+8з373383 0.0 1003493
21:00+2ююз325110 0.0 100634
24 октября, вс
вс2400:00+1ююз335943 0.0 100634
03:00+1ююз236581 0.0 100636
06:000ю2264100 0.0 100633
09:00+2ю226095 0.0 100674
12:00+9юв15394 0.0 10011150
15:00+11ю4837100 0.0 9991553
18:00+8ю3645100 0.0 998390
21:00+6ю3754100 0.0 998352
25 октября, пн
пн2500:00+6ю3462100 0.0 996243
03:00+6ююв3572100 0.0 995338
06:00+5ююв2479100 0.0 993242
09:00+7ю2376100 0.0 992170
12:00+10ю2863100 0.1 9911104
15:00+9зюз1365100 0.2 989647
18:00+7ю2277100 1.1 99050
21:00+4зюз41178100 3.3 996763